TimeEDT,TemperatureF,Dew PointF,Humidity,Sea Level PressureIn,VisibilityMPH,Wind Direction,Wind SpeedMPH,Gust SpeedMPH,PrecipitationIn,Events,Conditions,WindDirDegrees,DateUTC
12:14 AM,58.6,52.0,79,30.07,10.0,NNE,5.8,-,N/A,,Overcast,20,2013-07-02 04:14:00
12:35 AM,58.5,51.8,79,30.06,10.0,North,5.8,-,N/A,,Overcast,10,2013-07-02 04:35:00
12:55 AM,58.1,51.3,78,30.05,10.0,NNE,4.6,-,N/A,,Mostly Cloudy,20,2013-07-02 04:55:00
1:14 AM,58.1,51.1,77,30.07,10.0,Calm,Calm,-,N/A,,Scattered Clouds,0,2013-07-02 05:14:00
1:35 AM,58.1,51.3,78,30.08,10.0,Calm,Calm,-,N/A,,Overcast,0,2013-07-02 05:35:00
1:55 AM,58.1,51.6,79,30.08,10.0,Calm,Calm,-,N/A,,Overcast,0,2013-07-02 05:55:00
2:15 AM,58.1,51.8,80,30.07,7.0,North,3.5,-,N/A,,Overcast,10,2013-07-02 06:15:00
2:35 AM,57.7,51.8,81,30.06,10.0,Calm,Calm,-,N/A,,Overcast,0,2013-07-02 06:35:00
2:54 AM,57.6,51.8,81,30.06,10.0,North,3.5,-,N/A,,Overcast,360,2013-07-02 06:54:00
3:15 AM,57.4,52.2,83,30.05,10.0,NNE,3.5,-,N/A,,Overcast,20,2013-07-02 07:15:00
3:35 AM,57.6,52.0,82,30.05,10.0,NNE,4.6,-,N/A,,Overcast,20,2013-07-02 07:35:00
3:54 AM,58.1,51.8,80,30.05,10.0,NNE,4.6,-,N/A,,Overcast,20,2013-07-02 07:54:00
4:15 AM,58.1,52.0,80,30.05,10.0,North,4.6,-,N/A,Rain,Light Rain,360,2013-07-02 08:15:00
4:35 AM,58.1,52.3,81,30.05,10.0,North,4.6,-,N/A,Rain,Light Rain,10,2013-07-02 08:35:00
4:54 AM,58.1,52.5,82,30.05,10.0,NNE,5.8,-,N/A,Rain,Light Rain,20,2013-07-02 08:54:00
5:15 AM,58.5,52.7,81,30.05,10.0,North,4.6,-,N/A,,Overcast,10,2013-07-02 09:15:00
5:35 AM,58.6,53.1,82,30.06,10.0,NNE,3.5,-,N/A,Rain,Light Rain,30,2013-07-02 09:35:00
5:54 AM,58.6,53.6,83,30.06,10.0,NNE,3.5,-,N/A,,Light Drizzle,20,2013-07-02 09:54:00
6:15 AM,58.6,54.0,84,30.06,10.0,NNE,3.5,-,N/A,,Overcast,30,2013-07-02 10:15:00
6:35 AM,58.6,54.7,87,30.07,10.0,Calm,Calm,-,N/A,,Light Drizzle,0,2013-07-02 10:35:00
6:54 AM,58.8,55.4,88,30.06,10.0,Calm,Calm,-,N/A,,Overcast,0,2013-07-02 10:54:00
7:15 AM,59.2,55.8,88,30.07,10.0,Calm,Calm,-,N/A,,Overcast,0,2013-07-02 11:15:00
7:35 AM,59.5,56.3,89,30.07,10.0,Calm,Calm,-,N/A,,Overcast,0,2013-07-02 11:35:00
7:55 AM,59.9,56.5,88,30.07,10.0,Calm,Calm,-,N/A,,Overcast,0,2013-07-02 11:55:00
8:15 AM,60.8,56.8,87,30.08,10.0,NNE,4.6,-,N/A,,Overcast,30,2013-07-02 12:15:00
8:35 AM,61.3,57.0,86,30.07,10.0,NE,4.6,-,N/A,,Overcast,40,2013-07-02 12:35:00
8:55 AM,61.7,57.2,85,30.07,10.0,NE,5.8,-,N/A,,Overcast,50,2013-07-02 12:55:00
9:15 AM,62.2,57.4,84,30.08,10.0,NE,8.1,-,N/A,,Overcast,50,2013-07-02 13:15:00
9:34 AM,62.6,57.2,82,30.08,10.0,ENE,8.1,-,N/A,,Overcast,60,2013-07-02 13:34:00
9:55 AM,63.7,57.2,79,30.08,10.0,NE,8.1,-,N/A,,Overcast,40,2013-07-02 13:55:00
10:15 AM,65.3,58.3,78,30.07,10.0,NE,4.6,-,N/A,,Overcast,40,2013-07-02 14:15:00
10:34 AM,65.8,58.5,77,30.08,10.0,East,8.1,-,N/A,,Mostly Cloudy,90,2013-07-02 14:34:00
10:55 AM,66.2,59.2,78,30.08,10.0,NE,4.6,-,N/A,,Overcast,50,2013-07-02 14:55:00
11:15 AM,66.2,59.5,79,30.08,10.0,ENE,5.8,-,N/A,,Overcast,70,2013-07-02 15:15:00
11:34 AM,66.6,59.5,78,30.09,10.0,ENE,9.2,-,N/A,,Overcast,60,2013-07-02 15:34:00
11:55 AM,67.5,59.9,77,30.09,10.0,ENE,6.9,-,N/A,,Overcast,60,2013-07-02 15:55:00
12:15 PM,67.3,59.7,77,30.08,10.0,NE,6.9,-,N/A,,Overcast,50,2013-07-02 16:15:00
12:34 PM,68.5,60.4,75,30.08,10.0,NE,5.8,-,N/A,,Overcast,40,2013-07-02 16:34:00
12:55 PM,68.5,60.4,75,30.08,10.0,East,6.9,-,N/A,,Overcast,80,2013-07-02 16:55:00
1:15 PM,68.4,60.4,76,30.09,10.0,ENE,4.6,-,N/A,,Overcast,60,2013-07-02 17:15:00
1:35 PM,69.8,61.2,74,30.08,10.0,NNE,4.6,-,N/A,,Overcast,30,2013-07-02 17:35:00
1:55 PM,70.5,61.7,74,30.07,10.0,NE,4.6,-,N/A,,Overcast,50,2013-07-02 17:55:00
2:15 PM,70.0,61.3,74,30.07,10.0,ENE,3.5,-,N/A,,Overcast,70,2013-07-02 18:15:00
2:35 PM,71.1,61.9,73,30.07,10.0,NNE,4.6,-,N/A,,Overcast,30,2013-07-02 18:35:00
2:55 PM,71.6,62.1,72,30.06,10.0,ENE,6.9,-,N/A,,Overcast,70,2013-07-02 18:55:00
3:14 PM,72.5,62.1,70,30.05,10.0,NE,4.6,-,N/A,,Overcast,40,2013-07-02 19:14:00
3:35 PM,72.0,61.9,70,30.05,10.0,Calm,Calm,-,N/A,,Overcast,0,2013-07-02 19:35:00
3:55 PM,72.3,61.9,70,30.05,10.0,ENE,4.6,-,N/A,,Overcast,60,2013-07-02 19:55:00
4:14 PM,71.4,62.8,74,30.05,10.0,ENE,3.5,-,N/A,,Overcast,60,2013-07-02 20:14:00
4:35 PM,71.6,62.2,72,30.05,10.0,Calm,Calm,-,N/A,,Overcast,0,2013-07-02 20:35:00
4:55 PM,72.1,62.6,72,30.05,10.0,Calm,Calm,-,N/A,,Overcast,0,2013-07-02 20:55:00
5:14 PM,73.2,62.8,70,30.05,10.0,NNE,3.5,-,N/A,,Overcast,30,2013-07-02 21:14:00
5:35 PM,72.5,61.9,69,30.05,10.0,Calm,Calm,-,N/A,,Overcast,0,2013-07-02 21:35:00
5:55 PM,72.0,61.7,70,30.05,10.0,ENE,3.5,-,N/A,,Overcast,70,2013-07-02 21:55:00
6:14 PM,72.0,63.0,73,30.05,10.0,Calm,Calm,-,N/A,,Overcast,0,2013-07-02 22:14:00
6:35 PM,71.6,62.4,73,30.05,10.0,ENE,3.5,-,N/A,,Overcast,60,2013-07-02 22:35:00
6:55 PM,71.8,62.4,72,30.05,10.0,NE,4.6,-,N/A,,Overcast,50,2013-07-02 22:55:00
7:14 PM,72.7,62.6,71,30.05,10.0,ENE,5.8,-,N/A,,Overcast,60,2013-07-02 23:14:00
7:35 PM,72.5,61.9,69,30.05,10.0,ENE,8.1,-,N/A,,Mostly Cloudy,60,2013-07-02 23:35:00
7:55 PM,72.5,61.7,69,30.05,10.0,ENE,8.1,-,N/A,,Clear,70,2013-07-02 23:55:00
8:15 PM,72.1,61.9,70,30.06,10.0,ENE,6.9,-,N/A,,Scattered Clouds,70,2013-07-03 00:15:00
8:35 PM,71.2,62.2,73,30.05,10.0,ENE,5.8,-,N/A,,Scattered Clouds,70,2013-07-03 00:35:00
8:55 PM,70.3,62.8,77,30.06,10.0,Calm,Calm,-,N/A,,Scattered Clouds,0,2013-07-03 00:55:00
9:15 PM,70.2,62.6,77,30.06,10.0,NNE,3.5,-,N/A,,Mostly Cloudy,30,2013-07-03 01:15:00
9:35 PM,69.8,63.0,79,30.06,7.0,NE,4.6,-,N/A,,Overcast,50,2013-07-03 01:35:00
9:54 PM,69.4,63.0,80,30.06,10.0,ENE,4.6,-,N/A,,Overcast,70,2013-07-03 01:54:00
10:15 PM,69.3,63.0,80,30.08,10.0,East,4.6,-,N/A,,Overcast,90,2013-07-03 02:15:00
10:35 PM,68.9,62.4,80,30.08,10.0,East,6.9,-,N/A,,Overcast,90,2013-07-03 02:35:00
10:55 PM,67.5,62.1,83,30.08,10.0,East,4.6,-,N/A,,Mostly Cloudy,80,2013-07-03 02:55:00
11:15 PM,66.6,61.9,85,30.09,10.0,ENE,4.6,-,N/A,,Scattered Clouds,70,2013-07-03 03:15:00
11:34 PM,66.2,61.9,86,30.09,10.0,East,4.6,-,N/A,,Mostly Cloudy,100,2013-07-03 03:34:00
11:55 PM,65.3,61.5,88,30.09,10.0,East,3.5,-,N/A,,Mostly Cloudy,80,2013-07-03 03:55:00